[[{"header":{"parameterUnit":"m.s-1","parameterCategory":1,"la1":30.2991,"la2":30.254,"lo1":-89.0895,"lo2":-89.0444,"dy":0.0017,"dx":0.0017,"nx":28,"ny":28,"refTime":"2024-05-07T09:00:00:Z","depth":0,"parameterNumber":2,"parameterNumberName":"U-component_of_WINDS"},"data":[0,0,0,0,0,0,0,0,0,0,0,0,0,0,0,0,0,0,0,0,0,0,0,0,0,0,0,0,0,0,0,0,0,0,0,0,0,0,0,0,0,0,0,0,0,0,0,0,0,0,0,0,0,0,0,0,0,0,0.6434,0.6434,0,0.6421,0.6421,0.6421,0.6391,0.6391,0.639,0.639,0.6376,0.6376,0.6376,0,0,0,0,0,0,0,0,0,0,0,0,0,0.6434,0.6434,0.6434,0.6434,0.6434,0.6421,0.6421,0.6421,0.6391,0.6391,0.639,0.6389,0.6376,0.6376,0.6376,0,0,0,0,0,0,0,0,0,0,0,0,0,0.6429,0.6434,0.6434,0.6418,0.6416,0.6421,0.6421,0.642,0.6392,0.6391,0.639,0.6389,0.6376,0.6376,0.6376,0.6396,0,0,0.6377,0.6378,0,0,0,0,0,0,0,0,0.6429,0.6429,0.642,0.6419,0.6417,0.6407,0.6416,0.6412,0.6392,0.6401,0.6389,0.6388,0.6387,0.6386,0.6386,0.6396,0.6395,0.6377,0.6378,0.6378,0.6378,0,0,0,0,0,0,0,0.6429,0.6429,0.6429,0.642,0.6418,0.6411,0.6409,0.6415,0.6399,0.64,0.6398,0.6397,0.6386,0.6386,0.6385,0.6395,0.6377,0.6378,0.6378,0.6378,0.6419,0.642,0,0,0,0,0,0,0.6432,0.643,0.6429,0.6428,0.6421,0.6412,0.641,0.6411,0.6399,0.6396,0.6397,0.6395,0.6386,0.6385,0.6385,0.6406,0.6378,0.6378,0.6378,0.6418,0.6419,0.642,0,0,0,0,0,0,0.6432,0.6432,0.643,0.6428,0.6427,0.6413,0.6414,0.6411,0.6411,0.6397,0.6394,0.64,0.6385,0.6384,0.6393,0.6405,0.6378,0.6378,0.6417,0.6419,0.642,0.645,0,0,0,0,0,0,0.6432,0.6433,0.644,0.6429,0.6428,0.6439,0.6415,0.6412,0.6411,0.6408,0.6399,0.6396,0.6384,0.6393,0.6394,0.6405,0.6379,0.6416,0.6418,0.6419,0.6447,0.6452,0.6455,0,0,0,0,0,0.6432,0.6449,0.644,0.6441,0.6437,0.644,0.6439,0.6425,0.6412,0.642,0.6411,0.6396,0.6404,0.6394,0.6395,0.6406,0.6415,0.6417,0.6419,0.6446,0.6451,0.6455,0,0,0,0,0,0,0.6462,0.6447,0.6438,0.6451,0.6447,0.6435,0.6443,0.6431,0.643,0.6427,0.641,0.6408,0.6419,0.6414,0.6403,0.6424,0.6407,0.641,0.6427,0.6432,0.6436,0.6436,0.6379,0,0,0,0,0,0.647,0.6474,0.6461,0.6474,0.6472,0.6458,0.6459,0.6448,0.6443,0.6441,0.6433,0.6428,0.643,0.6431,0.6431,0.6447,0.6444,0.6455,0.6459,0.6463,0.6464,0.6471,0.6476,0.6427,0.6427,0.6427,0,0,0.6487,0.6479,0.6483,0.648,0.6475,0.6479,0.6457,0.6462,0.6465,0.6442,0.6449,0.6444,0.6437,0.6449,0.6454,0.6445,0.6477,0.6465,0.6468,0.6468,0.6474,0.6478,0.6482,0.6429,0.6428,0.6428,0,0,0.6519,0.6514,0.6524,0.652,0.6513,0.6504,0.6506,0.6496,0.6491,0.6498,0.6481,0.6484,0.6487,0.6483,0.6481,0.6512,0.6498,0.6513,0.6533,0.654,0.6544,0.6547,0.6557,0.6561,0.6515,0.6515,0.6515,0,0.6541,0.6546,0.6531,0.6537,0.6536,0.6516,0.6525,0.6522,0.6516,0.6515,0.6506,0.6508,0.6503,0.6513,0.652,0.652,0.6522,0.6513,0.6544,0.6548,0.655,0.6559,0.6563,0.6516,0.6516,0.6516,0.6516,0,0.6572,0.6576,0.6585,0.6579,0.6579,0.6587,0.6573,0.6575,0.6565,0.6556,0.6564,0.6556,0.6554,0.6556,0.6547,0.6565,0.656,0.6548,0.653,0.6557,0.6565,0.6569,0.6519,0.6518,0.6518,0.6517,0,0,0.6622,0.6608,0.6611,0.6608,0.6599,0.6601,0.6609,0.6607,0.6608,0.6605,0.6609,0.6612,0.6601,0.6599,0.6588,0.6595,0.6618,0.6581,0.6581,0.6587,0.6637,0.6645,0.6649,0.6609,0.661,0.6611,0.6637,0,0.6651,0.6661,0.6648,0.6662,0.6664,0.6646,0.6651,0.6646,0.6639,0.664,0.6632,0.6633,0.6619,0.6617,0.6623,0.6614,0.6627,0.6612,0.6613,0.6613,0.6614,0.6654,0.6663,0.6688,0.664,0.6641,0.6641,0,0.6686,0.6684,0.6697,0.6687,0.6688,0.6693,0.669,0.6692,0.6686,0.668,0.6678,0.6665,0.6671,0.6655,0.6662,0.6651,0.6651,0.6647,0.6647,0.6646,0.6628,0.6652,0.6696,0.6699,0.6646,0.6646,0.6645,0,0.6719,0.672,0.6728,0.6726,0.6714,0.6718,0.6714,0.6707,0.6706,0.6704,0.6703,0.6702,0.6701,0.6699,0.6687,0.6676,0.6695,0.6678,0.6689,0.669,0.6693,0.6693,0.6736,0.6695,0.6695,0.6695,0.6695,0,0.6752,0.6761,0.6742,0.6747,0.6756,0.6741,0.675,0.6744,0.6738,0.6741,0.6725,0.6728,0.6712,0.6713,0.6703,0.671,0.671,0.6704,0.6701,0.6705,0.6706,0.6704,0.6701,0.6696,0.6696,0.6696,0.6696,0,0.679,0.6778,0.6785,0.6774,0.6771,0.6778,0.6768,0.6772,0.6764,0.6768,0.6768,0.6754,0.6755,0.6742,0.6741,0.6734,0.6745,0.6739,0.6746,0.6744,0.6756,0.6754,0.6798,0.6803,0.6761,0.6761,0.6761,0,0.6811,0.6817,0.6806,0.6807,0.6803,0.6805,0.6804,0.679,0.679,0.6783,0.6788,0.6787,0.6785,0.6787,0.6777,0.6776,0.6769,0.6785,0.6769,0.6772,0.6768,0.6767,0.6767,0.6788,0.6788,0.6789,0.6789,0,0.6849,0.6843,0.6842,0.684,0.684,0.6837,0.6834,0.6835,0.6819,0.682,0.6821,0.682,0.6818,0.6817,0.6813,0.6808,0.6796,0.6794,0.6797,0.68,0.6803,0.68,0.6754,0.6793,0.6793,0.6792,0.6792,0.6792,0.6878,0.6882,0.6875,0.6875,0.6871,0.6868,0.6871,0.6863,0.6863,0.686,0.6852,0.6853,0.6847,0.6841,0.6837,0.6838,0.683,0.6834,0.6834,0.6835,0.6837,0.6804,0.6837,0.6837,0.6837,0.6837,0.6837,0,0.6914,0.6908,0.6909,0.6904,0.6904,0.6893,0.6888,0.6889,0.6891,0.6886,0.6885,0.6885,0.6884,0.6874,0.6872,0.6875,0.6869,0.6874,0.6873,0.6872,0.6844,0.6842,0.6879,0.6879,0.6879,0.6879,0.6879,0.6879,0.6932,0.6939,0.6932,0.6936,0.693,0.6932,0.693,0.6927,0.6923,0.6924,0.6923,0.6917,0.691,0.6907,0.6905,0.6902,0.6902,0.6909,0.6904,0.6878,0.6874,0.687,0.6868,0.691,0.691,0.6932,0.6932,0.6932]},{"header":{"parameterUnit":"m.s-1","parameterCategory":1,"la1":30.2991,"la2":30.254,"lo1":-89.0895,"lo2":-89.0444,"dy":0.0017,"dx":0.0017,"nx":28,"ny":28,"refTime":"2024-05-07T09:00:00:Z","depth":0,"parameterNumber":3,"parameterNumberName":"V-component_of_WINDS"},"data":[0,0,0,0,0,0,0,0,0,0,0,0,0,0,0,0,0,0,0,0,0,0,0,0,0,0,0,0,0,0,0,0,0,0,0,0,0,0,0,0,0,0,0,0,0,0,0,0,0,0,0,0,0,0,0,0,0,0,5.9207,5.9208,0,5.9278,5.9279,5.928,5.9208,5.9205,5.9202,5.92,5.9267,5.9272,5.9276,0,0,0,0,0,0,0,0,0,0,0,0,0,5.9001,5.9006,5.9207,5.9208,5.9209,5.9278,5.9279,5.928,5.9209,5.9205,5.9202,5.9199,5.9266,5.9271,5.9276,0,0,0,0,0,0,0,0,0,0,0,0,0,5.9083,5.9007,5.9207,5.9182,5.918,5.9278,5.9279,5.928,5.9209,5.9205,5.9201,5.9197,5.9264,5.9271,5.9277,5.9402,0,0,5.9297,5.93,0,0,0,0,0,0,0,0,5.9079,5.9091,5.9184,5.9183,5.9182,5.923,5.9231,5.9321,5.921,5.9198,5.92,5.9195,5.9258,5.9265,5.9287,5.9405,5.9408,5.9298,5.9302,5.9305,5.9307,0,0,0,0,0,0,0,5.9073,5.9087,5.9235,5.9186,5.9184,5.9164,5.9171,5.9248,5.925,5.9199,5.9194,5.9203,5.9256,5.9281,5.9288,5.9409,5.9298,5.9304,5.9308,5.931,5.963,5.9634,0,0,0,0,0,0,5.9071,5.9083,5.9233,5.9237,5.9119,5.9171,5.9179,5.9219,5.925,5.925,5.9207,5.92,5.9272,5.9281,5.929,5.9437,5.9305,5.9311,5.9315,5.9625,5.9631,5.9636,0,0,0,0,0,0,5.9067,5.9085,5.923,5.9159,5.9176,5.9179,5.9224,5.9222,5.9247,5.9256,5.9255,5.9232,5.9269,5.9281,5.9375,5.9438,5.9314,5.932,5.962,5.9627,5.9633,5.9731,0,0,0,0,0,0,5.9062,5.9084,5.9134,5.9161,5.918,5.9315,5.9228,5.9227,5.9259,5.9251,5.9279,5.928,5.9267,5.9365,5.9381,5.9445,5.9325,5.9614,5.9623,5.9631,5.9722,5.9741,5.9756,0,0,0,0,0,5.9055,5.9158,5.9137,5.9155,5.9242,5.9319,5.933,5.9314,5.9265,5.9313,5.9318,5.9279,5.9429,5.9375,5.9393,5.9459,5.961,5.9621,5.963,5.9715,5.9737,5.9756,0,0,0,0,0,0,5.9136,5.9161,5.9138,5.9253,5.9285,5.9307,5.9367,5.9338,5.9383,5.9373,5.935,5.9357,5.9455,5.9467,5.9407,5.958,5.9511,5.9525,5.9569,5.9591,5.9607,5.9601,5.9331,0,0,0,0,0,5.9168,5.9231,5.9248,5.9348,5.9365,5.9364,5.9397,5.9382,5.9413,5.9425,5.9437,5.9467,5.9521,5.9556,5.9606,5.9724,5.9728,5.9778,5.9795,5.9809,5.9821,5.9881,5.9903,5.9669,5.9669,5.9669,0,0,5.9234,5.9255,5.9296,5.9365,5.9388,5.9451,5.9376,5.9446,5.9491,5.9435,5.9524,5.9534,5.9566,5.9671,5.9718,5.9684,5.9887,5.9822,5.9833,5.9837,5.9894,5.9916,5.9936,5.9676,5.9675,5.9674,0,0,5.9386,5.9409,5.9494,5.9519,5.9554,5.9552,5.9573,5.9599,5.9604,5.9693,5.9652,5.9705,5.9798,5.9822,5.9846,6.0005,5.997,6.0022,6.011,6.0169,6.0187,6.0203,6.0258,6.0278,6.0034,6.0034,6.0034,0,5.9462,5.9558,5.9541,5.9614,5.9645,5.9598,5.9682,5.9706,5.9756,5.9777,5.9738,5.9853,5.9871,5.998,6.0019,6.0041,6.0061,6.0018,6.0186,6.0202,6.0217,6.0269,6.029,6.004,6.004,6.0039,6.0038,0,5.9649,5.9716,5.9779,5.983,5.9868,5.9946,5.9938,5.9978,5.996,5.9961,6.0051,6.0071,6.0123,6.0148,6.0131,6.0254,6.0232,6.019,6.012,6.0246,6.0294,6.0314,6.0049,6.0047,6.0045,6.0043,0,0,5.9854,5.9894,5.9918,5.9939,5.9975,6.0024,6.0099,6.0152,6.0185,6.022,6.0281,6.036,6.0322,6.0349,6.0334,6.0386,6.0508,6.0337,6.0338,6.0367,6.0643,6.0673,6.0696,6.0485,6.0489,6.0492,6.0639,0,6.0006,6.0138,6.0124,6.0249,6.0308,6.0265,6.0329,6.0357,6.036,6.0409,6.0411,6.0467,6.0413,6.0429,6.0479,6.0483,6.0563,6.0472,6.0539,6.0541,6.0531,6.0721,6.0754,6.0892,6.0658,6.0661,6.0664,0,6.02,6.0243,6.0375,6.0399,6.0423,6.0482,6.0528,6.0577,6.0605,6.0603,6.0634,6.0609,6.0681,6.061,6.0708,6.0647,6.0673,6.0679,6.0684,6.0688,6.0609,6.0729,6.0936,6.0956,6.0694,6.0691,6.0689,0,6.0334,6.0425,6.0515,6.0535,6.0566,6.0608,6.0623,6.0648,6.0679,6.0719,6.0738,6.0785,6.0811,6.0846,6.0833,6.0784,6.0933,6.0862,6.0931,6.0932,6.0964,6.0962,6.1176,6.0984,6.0984,6.0983,6.0983,0,6.0503,6.0585,6.0575,6.063,6.0719,6.0701,6.0789,6.0798,6.082,6.0874,6.0839,6.089,6.087,6.0919,6.0909,6.0991,6.1003,6.1001,6.0997,6.1004,6.1004,6.102,6.1009,6.0989,6.0988,6.0986,6.0986,0,6.0668,6.0666,6.076,6.0782,6.0789,6.0853,6.0871,6.0921,6.0921,6.099,6.1005,6.1004,6.106,6.1051,6.1112,6.1105,6.1206,6.1191,6.1197,6.1193,6.1262,6.1255,6.1493,6.1522,6.1313,6.1315,6.1316,0,6.0776,6.0838,6.0866,6.0901,6.0919,6.0974,6.1007,6.0991,6.1025,6.1062,6.1107,6.116,6.1201,6.1292,6.1296,6.1342,6.1327,6.1407,6.1333,6.1337,6.1325,6.1321,6.1326,6.1421,6.1423,6.1425,6.1427,0,6.0967,6.0962,6.1011,6.1059,6.1099,6.1136,6.1169,6.1198,6.1185,6.1225,6.1282,6.1315,6.1377,6.1429,6.1472,6.1484,6.1453,6.145,6.1468,6.1474,6.1474,6.1473,6.1235,6.1444,6.1443,6.1441,6.144,6.144,6.1105,6.1157,6.1185,6.124,6.1263,6.1294,6.1342,6.1348,6.1396,6.1447,6.1434,6.1498,6.1523,6.1578,6.1595,6.1643,6.1613,6.164,6.1646,6.1653,6.166,6.1468,6.1651,6.165,6.165,6.1649,6.1649,0,6.1292,6.1307,6.1358,6.1406,6.1449,6.1417,6.1451,6.1488,6.1546,6.1573,6.1614,6.1678,6.1728,6.1736,6.1782,6.1819,6.1806,6.1832,6.1828,6.1831,6.1685,6.1664,6.1842,6.1842,6.1842,6.1842,6.1842,6.1842,6.1394,6.148,6.1478,6.1574,6.1588,6.1652,6.1674,6.1701,6.1722,6.1796,6.1838,6.1843,6.1861,6.1909,6.1952,6.1953,6.1971,6.2002,6.1997,6.1861,6.1841,6.1823,6.1803,6.2007,6.2007,6.2138,6.2139,6.214]}]]